K9MWM-1 Weather Reports


Display with metric or nautical units.
time (UTC)temp
F
wind
direction
speed
MPH
gust
MPH
rain 1hr
in
rain 24hr
in
rain mn
in
humidity
%
barometer
mb
20260902054240 50 0 0.0 0.0 0.00 0.00 0.00
20260902012158 69 337 0.0 0.0 0.00 0.00 0.00
20260901234808 71 322 0.0 0.0 0.00 0.00 0.00
20260901233742 73 315 0.0 0.0 0.00 0.00 0.00
20260901233229 74 320 0.0 0.0 0.00 0.00 0.00
20260901232717 74 317 0.0 0.0 0.00 0.00 0.00
20260901232204 75 308 0.0 0.0 0.00 0.00 0.00
20260901231651 76 319 0.0 0.0 0.00 0.00 0.00
20260901231138 76 315 0.0 0.0 0.00 0.00 0.00
20260901230625 76 321 0.0 0.0 0.00 0.00 0.00
20260901230113 76 324 0.0 0.0 0.00 0.00 0.00
20260901225559 76 325 0.0 0.0 0.00 0.00 0.00
20260901225047 76 315 0.0 0.0 0.00 0.00 0.00
20260901223508 77 315 0.0 0.0 0.00 0.00 0.00
20260901222956 77 318 0.0 0.0 0.00 0.00 0.00
20260901222443 78 318 0.0 0.0 0.00 0.00 0.00
20260901220354 84 292 0.0 0.0 0.00 0.00 0.00
20260901214813 84 301 0.0 0.0 0.00 0.00 0.00
20260901214300 83 273 0.0 0.0 0.00 0.00 0.00
20260901213747 82 279 0.0 0.0 0.00 0.00 0.00
20260901213235 81 292 0.0 0.0 0.00 0.00 0.00
20260901212721 81 199 0.0 0.0 0.00 0.00 0.00
20260901212208 80 298 0.0 0.0 0.00 0.00 0.00
20260901211656 79 306 0.0 0.0 0.00 0.00 0.00
20260901211143 78 22 0.0 0.0 0.00 0.00 0.00
20260901210630 78 298 0.0 0.0 0.00 0.00 0.00
20260901210117 78 312 0.0 0.0 0.00 0.00 0.00
20260901205605 77 324 0.0 0.0 0.00 0.00 0.00
20260901203001 66 139 0.0 0.0 0.00 0.00 0.00
20260901202447 66 127 0.0 0.0 0.00 0.00 0.00
20260901201934 67 131 0.0 0.0 0.00 0.00 0.00
20260901201423 69 123 0.0 0.0 0.00 0.00 0.00
20260901200909 71 144 0.0 0.0 0.00 0.00 0.00
20260901200356 73 156 0.0 0.0 0.00 0.00 0.00
20260901195846 74 164 0.0 0.0 0.00 0.00 0.00
20260901195331 74 130 0.0 0.0 0.00 0.00 0.00
20260901194305 74 164 0.0 0.0 0.00 0.00 0.00
20260901190122 78 154 0.0 0.0 0.00 0.00 0.00
20260901185609 79 168 0.0 0.0 0.00 0.00 0.00
20260901183518 79 324 0.0 0.0 0.00 0.00 0.00
20260901173756 71 337 0.0 0.0 0.00 0.00 0.00
20260901172731 69 75 0.0 0.0 0.00 0.00 0.00
20260901172218 68 67 0.0 0.0 0.00 0.00 0.00
20260901171152 68 315 0.0 0.0 0.00 0.00 0.00
20260901170639 67 228 0.0 0.0 0.00 0.00 0.00
20260901170127 67 352 0.0 0.0 0.00 0.00 0.00
20260901165614 67 100 0.0 0.0 0.00 0.00 0.00
20260901164549 66 205 0.0 0.0 0.00 0.00 0.00